CAPE
1522 1637 1728 1726 1828 1990 2011 2138 2147 2308 2424 2408 2248 2382 2394 2223 2095 1810 1535 1077 648 537 240 252 242 198 29 72 51 5 0 0 0 0 0 8 113 269 121 242 233 269 79
1457 1671 1768 1922 1974 1992 2050 2108 2162 2220 2330 2430 2453 2244 2258 2220 2146 1859 1604 1158 905 716 515 315 231 125 254 229 97 210 25 25 6 175 28 22 145 288 326 347 70 0 0
1437 1616 1871 1957 1949 1993 2055 2191 2242 2189 2242 2202 2264 2409 2161 2178 2081 1904 1766 1465 1038 879 678 571 400 279 273 229 179 123 137 183 139 10 0 47 51 40 98 142 82 4 9
1335 1528 1719 1868 1962 1963 2074 2197 2249 2238 2223 2282 2267 2369 2446 2332 2066 1817 1696 1627 1319 1018 840 755 617 438 383 486 352 325 281 253 222 175 98 38 85 86 53 36 37 42 41
1551 1585 1766 2081 2183 2215 2249 2245 2303 2371 2220 2282 2203 2234 2352 2343 1825 2107 1867 1732 1558 1302 1084 883 777 560 336 393 263 431 569 356 209 213 159 12 23 3 89 139 120 67 35
1639 1694 1831 2128 2245 2268 2325 2369 2419 2438 2428 2440 2277 2206 2238 1849 1290 1180 1650 1885 1587 1801 1831 1289 978 809 830 694 426 347 512 762 819 229 84 77 231 178 171 171 73 101 51
1737 1803 1994 2188 2230 2314 2357 2446 2507 2566 2662 2591 2490 2302 2247 2247 1098 1027 1072 2152 2103 2178 2157 1911 1449 1362 1425 1353 802 510 183 46 247 870 579 622 531 418 249 27 83 56 154
1883 2030 2169 2289 2287 2327 2364 2370 2399 2454 2594 2752 2684 2624 2402 2249 1180 981 1039 1635 2383 2462 2249 1994 1653 1667 1677 1689 920 667 446 240 124 162 668 849 743 134 101 159 195 150 212
1935 2160 2296 2252 2377 2483 2484 2416 2375 2341 2357 2452 2740 2848 2783 2646 1330 1136 1117 1444 2166 2490 2065 1856 1650 1654 1612 1473 824 966 746 732 222 150 215 176 36 18 12 34 83 17 46
2068 2176 2309 2380 2435 2508 2591 2579 2593 2503 2390 1999 2424 2760 2427 2875 1788 1306 1169 1565 2016 2076 1762 1715 1634 1462 1579 1180 852 881 1085 943 492 182 155 20 9 10 3 55 167 177 147
2093 2383 2611 2651 2682 2533 2701 2767 2858 2594 2600 2822 2761 2690 2782 2461 2590 1516 1265 1648 1926 1640 1206 906 1040 1352 1365 903 831 889 799 853 316 404 212 100 64 98 20 22 53 1 1
2384 2276 2864 2958 2483 2448 2862 2439 2845 2625 2039 2681 3463 2937 2533 2444 1632 1543 1403 1443 1490 1269 1139 769 851 1346 1057 699 249 246 285 393 427 319 180 124 25 7 4 0 0 0 0
2105 2619 2771 2931 2911 3174 3146 2991 2707 2774 2353 2656 3044 3012 2582 2195 2106 2063 2006 1928 1597 1138 976 1026 1074 833 313 110 72 278 384 403 357 261 271 70 9 0 0 0 0 0 0
2658 2872 2978 2904 3046 3124 2987 2999 2967 3135 3329 3172 3221 2871 2594 2330 2258 2664 2072 1949 1797 1651 400 34 30 169 191 123 89 202 219 357 308 136 13 5 0 0 0 0 0 0 0
2116 2257 2409 2561 2586 2588 2634 2916 3604 3817 3340 3554 3324 2678 2435 2524 2684 2311 2275 1996 1634 980 524 0 48 150 93 60 90 132 185 253 41 2 6 0 0 0 0 0 0 0 0
2152 1759 1175 1133 1573 1884 2137 2393 2685 2708 2881 2885 2675 2293 2389 2208 2144 2084 2108 1296 703 89 0 34 13 41 65 110 149 229 195 102 2 8 0 0 0 0 0 0 0 0 0
2085 1958 1862 1777 1704 1702 1701 1699 1695 1631 1929 2182 2464 2309 2080 2029 2211 2114 1594 394 22 0 0 6 37 87 129 131 122 108 76 0 21 4 0 0 0 0 0 0 0 0 0
2107 2175 2191 2092 1984 1851 1829 1738 1680 1786 1695 1609 1678 1689 1746 1602 1040 855 190 47 0 2 63 0 2 98 161 154 140 45 1 5 1 0 0 0 0 0 0 0 0 0 0
1205 1549 1652 1828 1810 1807 1736 1917 1592 1321 1259 881 715 559 393 108 0 0 0 0 0 17 93 133 51 122 126 36 0 0 0 0 0 1 1 0 0 0 0 0 0 0 0
814 979 922 903 1160 1338 1115 1058 885 714 497 15 0 0 0 1 7 8 0 4 25 7 56 90 81 30 0 0 0 0 0 0 0 0 0 0 0 0 0 0 0 0 0
83 76 73 369 586 792 789 378 0 0 0 0 0 0 0 0 1 31 75 151 61 78 53 0 0 0 0 0 0 0 0 0 0 0 0 0 0 0 0 0 0 0 0
24 71 109 117 4 1 3 0 0 0 0 0 0 0 20 26 48 138 25 1 0 0 0 0 0 0 0 0 0 0 0 0 0 0 0 0 0 0 0 0 0 0 0
397 232 110 42 13 6 1 4 0 3 12 4 17 41 85 26 0 0 0 0 0 0 0 0 0 0 0 0 0 0 0 0 0 0 0 0 0 0 0 0 0 0 0
469 496 496 238 85 29 13 0 0 0 0 15 96 38 0 0 0 0 0 0 0 0 0 0 0 0 0 0 0 0 0 0 0 0 0 0 0 0 0 0 0 0 0
93 172 245 167 99 60 40 1 5 30 59 32 52 37 0 0 0 0 0 0 0 0 0 0 0 0 0 0 0 0 0 0 0 0 0 0 0 0 0 0 0 0 0
10 50 91 55 117 76 37 41 38 16 2 32 46 42 21 3 1 3 1 0 0 0 2 0 0 0 0 0 0 0 0 0 0 0 0 0 0 0 0 0 0 0 0
CIN
-316 -277 -233 -222 -193 -150 -118 -115 -110 -85 -61 -39 -47 -38 -45 -59 -61 -76 -107 -144 -218 -205 -277 -264 -248 -249 -287 -241 -227 -187 0 0 0 0 0 -47 -59 -19 -54 -35 -44 -36 -108
-363 -341 -312 -267 -244 -210 -168 -158 -149 -116 -97 -64 -49 -51 -46 -57 -70 -100 -110 -148 -192 -205 -226 -267 -263 -302 -238 -218 -231 -155 -169 -152 -108 -38 -105 -105 -54 -32 -22 -19 -79 0 0
-407 -372 -342 -315 -283 -261 -234 -193 -166 -152 -124 -99 -70 -47 -75 -77 -95 -125 -126 -137 -179 -183 -202 -219 -237 -278 -261 -229 -235 -209 -167 -120 -84 -140 -10 -84 -100 -106 -47 -55 -77 -52 -33
-444 -431 -429 -413 -385 -358 -314 -238 -199 -193 -164 -143 -127 -89 -78 -88 -116 -133 -144 -140 -161 -183 -195 -182 -193 -235 -235 -180 -182 -152 -125 -107 -82 -65 -54 -72 -63 -113 -110 -95 -141 -19 -31
-497 -489 -530 -500 -430 -372 -315 -286 -248 -203 -204 -191 -180 -153 -126 -108 -142 -131 -151 -162 -161 -178 -179 -184 -169 -225 -140 -124 -283 -136 -57 -67 -65 -47 -37 -95 -63 -24 -110 -87 -126 -63 -58
-540 -554 -558 -483 -450 -433 -368 -314 -264 -239 -218 -178 -193 -196 -169 -187 -259 -311 -218 -147 -174 -140 -101 -144 -128 -42 -42 -43 -58 -69 -110 -26 -7 -43 -35 -39 -13 -33 -73 -65 -20 -23 -26
-563 -562 -524 -501 -479 -450 -408 -354 -327 -276 -213 -207 -201 -214 -216 -215 -348 -344 -250 -129 -130 -112 -85 -62 -19 -22 -7 -3 -28 -74 -66 -200 -108 -1 -1 -1 0 -19 -23 -32 -16 -16 0
-566 -522 -512 -493 -502 -445 -390 -414 -397 -330 -294 -242 -232 -228 -230 -264 -399 -270 -319 -238 -122 -89 -86 -63 -32 -11 -5 -1 -37 -42 -59 -162 -171 -52 -4 -2 -6 -81 -52 -12 -25 -2 -1
-563 -551 -567 -587 -516 -445 -446 -477 -447 -358 -339 -324 -247 -201 -224 -260 -476 -269 -155 -311 -154 -89 -104 -76 -18 -18 -10 -19 -35 -14 -21 -20 -133 -79 -12 -12 -66 -38 -34 -12 0 -4 -6
-604 -620 -608 -558 -517 -498 -529 -474 -404 -384 -390 -376 -286 -236 -279 -200 -378 -434 -250 -274 -187 -120 -123 -113 -30 -22 -15 -42 -97 -39 -2 0 -13 -39 -22 -107 -14 -14 -10 -11 -3 0 0
-570 -534 -535 -500 -498 -469 -339 -275 -258 -238 -189 -197 -258 -273 -245 -292 -227 -399 -415 -243 -165 -137 -182 -234 -143 -43 -34 -65 -131 -90 -21 -5 -45 -5 -16 -24 -35 -8 -11 -11 0 0 0
-529 -544 -468 -434 -466 -441 -341 -368 -226 -212 -169 -20 -4 -86 -204 -304 -382 -341 -273 -198 -136 -55 -104 -171 -197 -47 -40 -32 -94 -227 -132 -6 -1 -1 -9 -26 -9 0 0 0 0 0 0
-607 -520 -477 -428 -408 -299 -279 -266 -265 -196 -75 -194 -166 -112 -144 -266 -275 -259 -158 -85 -25 -24 -16 -8 -39 -20 -51 -156 -147 -103 -65 -1 0 -1 -5 -11 -6 0 0 0 0 0 0
-495 -467 -441 -429 -372 -298 -266 -245 -244 -186 -99 -99 -177 -149 -150 -192 -212 -152 -131 -70 -20 -5 -1 -3 0 -12 -15 -62 -201 -75 -29 -2 -3 -29 -14 -5 0 0 0 0 0 0 0
-477 -481 -470 -410 -398 -360 -339 -286 -174 -133 -155 -102 -123 -142 -165 -154 -128 -140 -115 -67 -90 -42 -3 0 -3 -2 -1 -53 -86 -35 -17 -3 -2 0 -13 0 0 0 0 0 0 0 0
-498 -578 -426 -380 -530 -442 -384 -312 -241 -214 -183 -119 -105 -113 -98 -73 -66 -50 -37 -88 -125 -169 -1 0 -53 -6 -18 -10 -17 -9 -6 -14 -12 -16 0 0 0 0 0 0 0 0 0
-268 -264 -266 -262 -250 -265 -360 -280 -257 -289 -206 -123 -44 -17 -15 -1 -1 0 0 -38 -105 -4 0 -291 -70 -2 0 -12 -35 -1 -5 0 -10 0 0 0 0 0 0 0 0 0 0
-299 -283 -260 -248 -254 -277 -260 -225 -190 -131 -105 -93 -60 -24 0 0 -2 -10 -48 -29 0 0 -93 0 -25 0 -1 -5 -16 -6 0 0 0 0 0 0 0 0 0 0 0 0 0
-391 -310 -270 -221 -198 -157 -148 -95 -76 -78 -55 -68 -54 -36 -25 -6 0 0 0 0 0 -13 0 0 -20 -3 -34 -25 0 0 0 0 0 0 0 0 0 0 0 0 0 0 0
-311 -270 -277 -268 -175 -117 -111 -71 -86 -99 -103 -73 0 0 -4 -64 -19 -32 0 -1 -23 -6 0 -4 -26 -37 0 0 0 0 0 0 0 0 0 0 0 0 0 0 0 0 0
-450 -391 -392 -246 -144 -77 -52 -98 0 0 0 0 0 0 0 0 -11 -11 -17 -5 -8 -39 -4 0 0 0 0 0 0 0 0 0 0 0 0 0 0 0 0 0 0 0 0
-354 -295 -243 -192 -107 -56 0 0 0 0 0 0 0 -8 -46 -49 -20 -15 -28 0 0 0 0 0 0 0 0 0 0 0 0 0 0 0 0 0 0 0 0 0 0 0 0
-47 -72 -107 -169 -222 -97 -24 -58 0 -81 -81 -76 -96 -56 -40 -23 0 0 0 0 0 0 0 0 0 0 0 0 0 0 0 0 0 0 0 0 0 0 0 0 0 0 0
-22 -16 -14 -31 -66 -73 -61 -1 0 0 0 -50 -26 -33 0 0 0 0 0 0 0 0 0 0 0 0 0 0 0 0 0 0 0 0 0 0 0 0 0 0 0 0 0
-68 -41 -22 -24 -29 -33 -42 -7 -28 -5 -4 -58 -23 -24 -1 0 0 0 0 0 0 0 0 0 0 0 0 0 0 0 0 0 0 0 0 0 0 0 0 0 0 0 0
-35 -18 -17 -22 -1 -4 -9 -3 -4 -7 -13 -8 -8 -9 -25 -20 -21 -1 -7 0 0 -1 -4 0 0 0 0 0 0 0 0 0 0 0 0 0 0 0 0 0 0 0 0
Wind_Speed
14 14 13 11 12 13 14 16 15 16 13 12 10 10 11 12 9 8 8 13 19 22 21 20 19 18 nan nan nan nan nan nan nan nan nan nan 17 15 19 23 22 21 nan
14 17 15 10 10 13 14 17 21 19 17 13 13 11 12 14 13 11 11 12 19 22 24 25 22 20 23 19 nan 21 nan nan nan 17 nan nan 18 20 20 24 nan nan nan
19 19 17 15 13 9 11 13 15 14 14 13 13 12 12 14 16 15 14 15 17 21 24 28 28 30 28 27 25 23 23 26 27 nan nan nan nan nan nan 24 nan nan nan
18 19 19 17 15 10 12 15 15 15 15 16 14 13 13 16 17 19 17 17 19 22 27 30 33 34 33 35 24 23 25 27 27 28 nan nan nan nan nan nan nan nan nan
18 20 19 17 15 14 17 19 18 19 15 16 19 18 17 18 21 25 25 24 27 27 30 30 33 37 38 44 46 24 26 30 34 37 38 nan nan nan nan 35 32 nan nan
26 19 17 19 17 16 18 17 16 18 18 16 17 18 20 22 27 31 29 27 29 30 30 32 34 39 42 48 50 25 34 39 44 39 nan nan 34 34 38 37 nan 36 nan
19 19 20 19 14 16 18 19 17 17 19 19 19 19 20 21 31 35 34 29 30 33 33 35 40 40 43 45 46 39 38 nan 47 40 39 38 35 36 39 nan nan nan 40
25 20 20 19 14 17 21 19 18 21 21 22 22 26 25 23 31 37 40 35 34 36 39 40 42 45 48 50 54 40 37 38 41 36 39 34 34 42 43 43 43 41 41
20 19 21 20 23 26 21 20 24 24 23 25 23 24 26 28 39 41 44 39 36 38 43 47 48 52 53 56 44 34 36 35 37 38 36 42 nan nan nan nan nan nan nan
14 13 18 23 26 27 22 24 29 30 32 35 33 25 23 24 39 46 49 41 41 47 48 50 57 58 64 61 59 48 35 43 42 37 40 nan nan nan nan nan 39 36 32
19 23 24 22 25 30 37 41 34 33 39 38 39 31 27 27 31 46 56 55 52 54 55 58 60 68 73 73 57 40 32 34 33 38 39 39 nan nan nan nan nan nan nan
35 33 32 29 28 33 41 37 41 53 49 59 32 28 36 43 39 47 45 56 60 55 47 62 71 83 81 78 75 65 41 33 32 36 37 41 nan nan nan nan nan nan nan
44 39 35 34 34 36 38 42 42 45 57 58 57 40 35 42 48 47 54 56 57 61 68 73 95 87 73 74 nan 38 35 35 32 31 36 nan nan nan nan nan nan nan nan
40 35 40 36 35 35 35 38 42 47 49 54 55 43 49 54 63 63 60 59 64 72 81 nan nan 101 86 59 nan 33 23 28 27 30 nan nan nan nan nan nan nan nan nan
41 45 46 43 45 48 47 46 46 46 44 44 52 57 63 64 63 69 72 77 79 81 81 nan nan 43 nan nan nan 16 26 29 nan nan nan nan nan nan nan nan nan nan nan
54 55 56 58 59 56 56 56 57 51 63 68 70 69 63 71 76 81 80 84 90 nan nan nan nan nan nan 18 12 18 24 29 nan nan nan nan nan nan nan nan nan nan nan
49 51 49 48 48 50 52 55 59 57 57 63 72 72 70 75 81 87 82 86 nan nan nan nan nan nan 17 11 19 20 nan nan nan nan nan nan nan nan nan nan nan nan nan
54 53 50 50 51 54 55 58 57 50 50 53 57 63 59 63 71 75 80 nan nan nan nan nan nan nan 9 17 16 nan nan nan nan nan nan nan nan nan nan nan nan nan nan
56 56 57 58 55 53 50 51 49 50 52 52 51 57 67 80 nan nan nan nan nan nan nan 12 nan 8 14 nan nan nan nan nan nan nan nan nan nan nan nan nan nan nan nan
62 65 61 52 51 50 48 47 50 52 47 nan nan nan nan nan nan nan nan nan nan nan nan nan nan nan nan nan nan nan nan nan nan nan nan nan nan nan nan nan nan nan nan
nan nan nan 57 54 49 46 47 nan nan nan nan nan nan nan nan nan nan nan 14 nan nan nan nan nan nan nan nan nan nan nan nan nan nan nan nan nan nan nan nan nan nan nan
nan nan 62 51 nan nan nan nan nan nan nan nan nan nan nan nan nan 12 nan nan nan nan nan nan nan nan nan nan nan nan nan nan nan nan nan nan nan nan nan nan nan nan nan
44 37 39 nan nan nan nan nan nan nan nan nan nan nan nan nan nan nan nan nan nan nan nan nan nan nan nan nan nan nan nan nan nan nan nan nan nan nan nan nan nan nan nan
48 42 43 43 nan nan nan nan nan nan nan nan nan nan nan nan nan nan nan nan nan nan nan nan nan nan nan nan nan nan nan nan nan nan nan nan nan nan nan nan nan nan nan
nan 46 45 45 nan nan nan nan nan nan nan nan nan nan nan nan nan nan nan nan nan nan nan nan nan nan nan nan nan nan nan nan nan nan nan nan nan nan nan nan nan nan nan
nan nan nan nan 46 nan nan nan nan nan nan nan nan nan nan nan nan nan nan nan nan nan nan nan nan nan nan nan nan nan nan nan nan nan nan nan nan nan nan nan nan nan nan
Wind_Direction
347 344 331 310 292 281 281 284 286 291 303 309 302 289 306 309 321 312 337 343 354 357 354 346 346 344 nan nan nan nan nan nan nan nan nan nan 320 324 318 318 322 322 nan
329 325 333 310 295 295 300 301 296 295 292 297 295 277 295 306 303 312 314 314 335 346 349 342 340 329 346 344 nan 4 nan nan nan 345 nan nan 331 317 317 318 nan nan nan
316 319 318 322 313 327 334 337 333 318 306 295 283 274 289 306 310 313 316 308 318 333 341 337 337 334 334 324 330 339 348 349 347 nan nan nan nan nan nan 316 nan nan nan
306 312 318 326 329 331 323 332 340 341 331 313 298 282 286 307 321 316 318 310 309 320 338 337 329 332 329 326 323 331 336 334 331 336 nan nan nan nan nan nan nan nan nan
299 303 324 321 310 305 319 335 336 341 341 337 314 301 294 309 314 324 324 317 315 319 325 329 328 326 327 325 315 313 320 329 328 326 329 nan nan nan nan 320 316 nan nan
314 312 300 296 301 310 312 323 325 341 345 338 333 321 311 312 316 318 317 316 315 314 321 323 318 317 318 318 319 306 327 326 324 320 nan nan 318 314 311 312 nan 308 nan
306 298 288 290 302 306 302 299 318 330 321 335 330 323 328 322 311 312 313 300 308 312 313 312 312 310 318 314 315 322 339 nan 324 317 318 319 316 317 312 nan nan nan 308
297 301 287 279 293 290 289 299 298 303 314 312 320 321 316 316 311 315 316 302 301 306 306 304 308 305 307 305 303 327 326 325 313 316 316 313 314 304 312 309 309 306 307
303 313 308 300 294 285 296 298 289 282 290 307 310 311 314 311 307 313 308 305 306 303 298 298 301 299 301 298 298 305 316 310 300 309 304 299 nan nan nan nan nan nan nan
307 333 314 271 277 288 293 292 285 285 281 281 295 296 300 302 301 301 300 287 294 294 294 293 295 291 286 289 298 294 309 307 306 304 303 nan nan nan nan nan 309 313 312
285 269 284 294 274 259 256 255 267 265 261 273 281 281 286 292 299 305 305 290 281 281 284 289 287 287 285 289 303 293 293 293 295 297 301 304 nan nan nan nan nan nan nan
276 279 280 276 267 269 279 268 264 261 262 252 238 268 281 282 302 289 293 304 296 278 271 290 289 286 284 284 285 280 280 279 292 295 301 302 nan nan nan nan nan nan nan
272 280 275 273 257 257 266 277 282 290 289 302 304 298 292 296 310 300 313 304 300 298 293 298 282 274 276 289 nan 271 279 276 283 298 301 nan nan nan nan nan nan nan nan
270 271 268 268 271 268 273 275 279 282 291 286 291 304 296 300 299 294 288 281 278 278 274 nan nan 251 248 281 nan 256 275 281 292 300 nan nan nan nan nan nan nan nan nan
254 255 265 269 272 269 263 266 281 281 287 284 284 286 287 285 282 286 285 286 284 279 280 nan nan 276 nan nan nan 283 282 277 nan nan nan nan nan nan nan nan nan nan nan
253 254 260 262 264 265 264 262 252 258 275 274 279 279 272 279 283 281 282 284 287 nan nan nan nan nan nan 239 280 267 271 289 nan nan nan nan nan nan nan nan nan nan nan
257 260 262 266 268 270 272 271 271 264 261 276 280 280 284 288 289 289 288 290 nan nan nan nan nan nan 254 300 281 274 nan nan nan nan nan nan nan nan nan nan nan nan nan
267 270 270 272 278 283 284 285 288 283 285 282 275 276 279 280 285 284 283 nan nan nan nan nan nan nan 274 262 273 nan nan nan nan nan nan nan nan nan nan nan nan nan nan
274 277 278 277 278 278 279 280 286 283 283 286 287 284 284 276 nan nan nan nan nan nan nan 198 nan 282 270 nan nan nan nan nan nan nan nan nan nan nan nan nan nan nan nan
258 260 267 269 273 273 278 279 278 275 281 nan nan nan nan nan nan nan nan nan nan nan nan nan nan nan nan nan nan nan nan nan nan nan nan nan nan nan nan nan nan nan nan
nan nan nan 269 266 268 273 274 nan nan nan nan nan nan nan nan nan nan nan 260 nan nan nan nan nan nan nan nan nan nan nan nan nan nan nan nan nan nan nan nan nan nan nan
nan nan 264 262 nan nan nan nan nan nan nan nan nan nan nan nan nan 276 nan nan nan nan nan nan nan nan nan nan nan nan nan nan nan nan nan nan nan nan nan nan nan nan nan
264 256 257 nan nan nan nan nan nan nan nan nan nan nan nan nan nan nan nan nan nan nan nan nan nan nan nan nan nan nan nan nan nan nan nan nan nan nan nan nan nan nan nan
251 250 255 257 nan nan nan nan nan nan nan nan nan nan nan nan nan nan nan nan nan nan nan nan nan nan nan nan nan nan nan nan nan nan nan nan nan nan nan nan nan nan nan
nan 249 250 255 nan nan nan nan nan nan nan nan nan nan nan nan nan nan nan nan nan nan nan nan nan nan nan nan nan nan nan nan nan nan nan nan nan nan nan nan nan nan nan
nan nan nan nan 257 nan nan nan nan nan nan nan nan nan nan nan nan nan nan nan nan nan nan nan nan nan nan nan nan nan nan nan nan nan nan nan nan nan nan nan nan nan nan